| time (UTC) | temp C | wind direction | speed KPH | gust KPH | rain 1hr cm | rain 24hr cm | rain mn cm | humidity % | barometer mb |
| 20260905131505 | 23 | 304 | 11.3 | 22.5 | 0.00 | 0.71 | 0.71 | 51 | 1019.8 |
| 20260905130001 | 23 | 277 | 11.3 | 22.5 | 0.00 | 0.71 | 0.71 | 53 | 1019.9 |
| 20260905124500 | 23 | 290 | 4.8 | 20.9 | 0.00 | 0.71 | 0.71 | 56 | 1020.0 |
| 20260905123000 | 22 | 266 | 8.0 | 27.4 | 0.00 | 0.71 | 0.71 | 57 | 1019.9 |
| 20260905121600 | 22 | 267 | 9.7 | 22.5 | 0.00 | 0.71 | 0.71 | 58 | 1019.8 |
| 20260905120100 | 23 | 294 | 4.8 | 25.7 | 0.00 | 0.71 | 0.71 | 59 | 1020.0 |
| 20260905114610 | 22 | 275 | 4.8 | 38.6 | 0.00 | 0.71 | 0.71 | 59 | 1020.1 |
| 20260905113055 | 22 | 275 | 11.3 | 24.1 | 0.00 | 0.71 | 0.71 | 57 | 1019.9 |
| 20260905111606 | 22 | 261 | 9.7 | 27.4 | 0.00 | 0.71 | 0.71 | 60 | 1020.0 |
| 20260905110055 | 21 | 255 | 12.9 | 38.6 | 0.00 | 0.71 | 0.71 | 61 | 1020.0 |
| 20260905104552 | 21 | 303 | 11.3 | 25.7 | 0.00 | 0.71 | 0.71 | 63 | 1019.9 |
| 20260905103051 | 20 | 229 | 12.9 | 20.9 | 0.00 | 0.71 | 0.71 | 69 | 1019.9 |
| 20260905101548 | 20 | 302 | 3.2 | 17.7 | 0.00 | 0.71 | 0.71 | 72 | 1019.9 |
| 20260905100049 | 20 | 292 | 9.7 | 27.4 | 0.00 | 0.71 | 0.71 | 71 | 1019.9 |
| 20260905094559 | 20 | 248 | 4.8 | 17.7 | 0.00 | 0.71 | 0.71 | 75 | 1019.9 |
| 20260905093045 | 20 | 288 | 9.7 | 25.7 | 0.00 | 0.71 | 0.71 | 76 | 1019.8 |
| 20260905091546 | 19 | 273 | 6.4 | 19.3 | 0.00 | 0.71 | 0.71 | 81 | 1019.7 |
| 20260905090039 | 18 | 308 | 4.8 | 17.7 | 0.00 | 0.71 | 0.71 | 84 | 1019.6 |
| 20260905084543 | 18 | 271 | 4.8 | 16.1 | 0.00 | 0.71 | 0.71 | 84 | 1019.4 |
| 20260905083036 | 18 | 257 | 1.6 | 22.5 | 0.00 | 0.71 | 0.71 | 85 | 1019.1 |
| 20260905081535 | 18 | 271 | 1.6 | 19.3 | 0.00 | 0.71 | 0.71 | 85 | 1019.1 |
| 20260905080048 | 18 | 263 | 4.8 | 19.3 | 0.00 | 0.71 | 0.71 | 84 | 1018.9 |
| 20260905074533 | 18 | 259 | 1.6 | 9.7 | 0.00 | 0.71 | 0.71 | 83 | 1018.8 |
| 20260905073040 | 17 | 267 | 0.0 | 3.2 | 0.00 | 0.71 | 0.71 | 86 | 1018.9 |
| 20260905071528 | 17 | 191 | 0.0 | 0.0 | 0.00 | 0.71 | 0.71 | 87 | 1018.7 |
| 20260905070025 | 16 | 355 | 0.0 | 0.0 | 0.00 | 0.71 | 0.71 | 89 | 1018.5 |
| 20260905064519 | 16 | 355 | 0.0 | 0.0 | 0.00 | 0.71 | 0.71 | 90 | 1018.6 |
| 20260905063018 | 15 | 355 | 0.0 | 0.0 | 0.00 | 0.71 | 0.71 | 91 | 1018.5 |
| 20260905061515 | 15 | 355 | 0.0 | 0.0 | 0.00 | 0.71 | 0.71 | 91 | 1018.4 |
| 20260905060014 | 15 | 355 | 0.0 | 0.0 | 0.00 | 0.71 | 0.71 | 92 | 1018.2 |
| 20260905054510 | 15 | 355 | 0.0 | 0.0 | 0.00 | 0.71 | 0.71 | 92 | 1017.9 |
| 20260905053007 | 15 | 355 | 0.0 | 0.0 | 0.00 | 0.71 | 0.71 | 92 | 1018.0 |
| 20260905051505 | 14 | 355 | 0.0 | 0.0 | 0.00 | 0.71 | 0.71 | 91 | 1017.7 |
| 20260905050000 | 14 | 355 | 0.0 | 0.0 | 0.00 | 0.71 | 0.71 | 91 | 1017.2 |
| 20260905044600 | 14 | 355 | 0.0 | 0.0 | 0.00 | 0.71 | 0.71 | 91 | 1017.1 |
| 20260905043119 | 15 | 355 | 0.0 | 0.0 | 0.03 | 0.71 | 0.71 | 91 | 1016.9 |
| 20260905041557 | 14 | 355 | 0.0 | 0.0 | 0.05 | 0.71 | 0.71 | 91 | 1016.7 |
| 20260905040117 | 15 | 355 | 0.0 | 0.0 | 0.10 | 0.71 | 0.71 | 91 | 1016.6 |
| 20260905034557 | 15 | 350 | 0.0 | 0.0 | 0.20 | 0.71 | 0.71 | 90 | 1016.8 |
| 20260905033055 | 15 | 349 | 0.0 | 0.0 | 0.23 | 0.69 | 0.69 | 89 | 1016.8 |
| 20260905031552 | 15 | 348 | 0.0 | 0.0 | 0.30 | 0.64 | 0.64 | 89 | 1016.9 |
| 20260905030051 | 15 | 348 | 0.0 | 0.0 | 0.38 | 0.61 | 0.61 | 88 | 1017.0 |
| 20260905024547 | 15 | 347 | 0.0 | 0.0 | 0.51 | 0.51 | 0.51 | 87 | 1017.1 |
| 20260905023050 | 16 | 347 | 0.0 | 14.5 | 0.43 | 0.43 | 0.43 | 87 | 1017.1 |
| 20260905021547 | 16 | 19 | 1.6 | 16.1 | 0.33 | 0.33 | 0.33 | 89 | 1016.8 |
| 20260905020037 | 17 | 42 | 6.4 | 19.3 | 0.23 | 0.23 | 0.23 | 87 | 1016.3 |
| 20260905014533 | 17 | 330 | 0.0 | 14.5 | 0.00 | 0.00 | 0.00 | 84 | 1016.1 |
| 20260905013028 | 18 | 325 | 9.7 | 29.0 | 0.00 | 0.00 | 0.00 | 79 | 1015.8 |
| 20260905011523 | 20 | 300 | 3.2 | 14.5 | 0.00 | 0.00 | 0.00 | 75 | 1015.5 |
| 20260905010021 | 20 | 327 | 4.8 | 14.5 | 0.00 | 0.00 | 0.00 | 72 | 1015.2 |
| 20260905004519 | 20 | 317 | 4.8 | 17.7 | 0.00 | 0.00 | 0.00 | 70 | 1015.0 |
| 20260905003019 | 20 | 317 | 1.6 | 9.7 | 0.00 | 0.00 | 0.00 | 70 | 1014.7 |
| 20260905001512 | 21 | 323 | 3.2 | 16.1 | 0.00 | 0.00 | 0.00 | 70 | 1014.7 |
| 20260905000025 | 21 | 327 | 1.6 | 16.1 | 0.00 | 0.00 | 0.00 | 70 | 1014.6 |
| 20260904234505 | 21 | 317 | 1.6 | 17.7 | 0.00 | 0.00 | 0.00 | 70 | 1014.4 |
| 20260904233002 | 22 | 348 | 3.2 | 20.9 | 0.00 | 0.00 | 0.00 | 68 | 1014.1 |
| 20260904231559 | 23 | 315 | 1.6 | 22.5 | 0.00 | 0.00 | 0.00 | 64 | 1013.6 |
| 20260904230105 | 23 | 288 | 0.0 | 17.7 | 0.00 | 0.00 | 0.00 | 62 | 1013.5 |
| 20260904224556 | 23 | 273 | 1.6 | 17.7 | 0.00 | 0.00 | 0.00 | 60 | 1013.4 |
| 20260904223055 | 23 | 267 | 1.6 | 12.9 | 0.00 | 0.00 | 0.00 | 61 | 1013.3 |
| 20260904221551 | 23 | 267 | 1.6 | 11.3 | 0.00 | 0.00 | 0.00 | 61 | 1012.9 |
| 20260904220107 | 23 | 267 | 0.0 | 1.6 | 0.00 | 0.00 | 0.00 | 61 | 1012.7 |
| 20260904214545 | 23 | 267 | 0.0 | 0.0 | 0.00 | 0.00 | 0.00 | 60 | 1012.6 |
| 20260904213044 | 23 | 267 | 0.0 | 3.2 | 0.00 | 0.00 | 0.00 | 58 | 1012.4 |
| 20260904211550 | 24 | 267 | 0.0 | 4.8 | 0.00 | 0.00 | 0.00 | 57 | 1012.2 |
| 20260904210047 | 24 | 267 | 0.0 | 0.0 | 0.00 | 0.00 | 0.00 | 56 | 1012.2 |
| 20260904204542 | 25 | 267 | 0.0 | 0.0 | 0.00 | 0.00 | 0.00 | 55 | 1012.0 |
| 20260904203049 | 25 | 267 | 0.0 | 0.0 | 0.00 | 0.00 | 0.00 | 55 | 1012.1 |
| 20260904201541 | 25 | 267 | 0.0 | 6.4 | 0.00 | 0.00 | 0.00 | 54 | 1012.0 |
| 20260904200043 | 25 | 255 | 0.0 | 9.7 | 0.00 | 0.00 | 0.00 | 54 | 1011.9 |
| 20260904194544 | 25 | 259 | 0.0 | 3.2 | 0.00 | 0.00 | 0.00 | 54 | 1011.9 |
| 20260904193040 | 26 | 265 | 0.0 | 6.4 | 0.00 | 0.00 | 0.00 | 52 | 1011.8 |
| 20260904191546 | 26 | 248 | 1.6 | 9.7 | 0.00 | 0.00 | 0.00 | 50 | 1011.7 |
| 20260904190046 | 27 | 271 | 1.6 | 11.3 | 0.00 | 0.00 | 0.00 | 50 | 1011.5 |
| 20260904184549 | 27 | 277 | 0.0 | 16.1 | 0.00 | 0.00 | 0.00 | 49 | 1011.3 |
| 20260904183037 | 27 | 232 | 1.6 | 11.3 | 0.00 | 0.00 | 0.00 | 49 | 1011.2 |
| 20260904181537 | 28 | 261 | 3.2 | 19.3 | 0.00 | 0.00 | 0.00 | 48 | 1011.1 |
| 20260904180037 | 28 | 290 | 11.3 | 30.6 | 0.00 | 0.00 | 0.00 | 47 | 1010.9 |
| 20260904174539 | 28 | 278 | 9.7 | 33.8 | 0.00 | 0.00 | 0.00 | 46 | 1010.9 |
| 20260904173041 | 28 | 276 | 12.9 | 30.6 | 0.00 | 0.00 | 0.00 | 46 | 1010.8 |
| 20260904171537 | 29 | 269 | 4.8 | 27.4 | 0.00 | 0.00 | 0.00 | 45 | 1010.7 |
| 20260904170043 | 29 | 294 | 6.4 | 25.7 | 0.00 | 0.00 | 0.00 | 44 | 1010.7 |
| 20260904164534 | 30 | 261 | 8.0 | 30.6 | 0.00 | 0.00 | 0.00 | 43 | 1010.7 |
| 20260904163031 | 30 | 251 | 8.0 | 24.1 | 0.00 | 0.00 | 0.00 | 43 | 1010.8 |
| 20260904161533 | 30 | 286 | 14.5 | 24.1 | 0.00 | 0.00 | 0.00 | 42 | 1010.8 |
| 20260904160030 | 30 | 251 | 6.4 | 24.1 | 0.00 | 0.00 | 0.00 | 42 | 1010.7 |
| 20260904154531 | 30 | 265 | 9.7 | 30.6 | 0.00 | 0.00 | 0.00 | 41 | 1010.8 |
| 20260904153029 | 30 | 307 | 14.5 | 27.4 | 0.00 | 0.00 | 0.00 | 41 | 1010.8 |
| 20260904151529 | 30 | 296 | 11.3 | 25.7 | 0.00 | 0.00 | 0.00 | 42 | 1010.8 |
| 20260904150034 | 30 | 296 | 9.7 | 30.6 | 0.00 | 0.00 | 0.00 | 42 | 1010.7 |
| 20260904144525 | 30 | 346 | 11.3 | 25.7 | 0.00 | 0.00 | 0.00 | 42 | 1010.8 |
| 20260904143025 | 30 | 313 | 11.3 | 25.7 | 0.00 | 0.00 | 0.00 | 42 | 1011.0 |
| 20260904141532 | 31 | 287 | 11.3 | 22.5 | 0.00 | 0.00 | 0.00 | 40 | 1011.2 |
| 20260904140044 | 30 | 273 | 11.3 | 27.4 | 0.00 | 0.00 | 0.00 | 42 | 1011.3 |
| 20260904134518 | 31 | 262 | 8.0 | 27.4 | 0.00 | 0.00 | 0.00 | 43 | 1011.4 |
| 20260904133016 | 30 | 250 | 1.6 | 16.1 | 0.00 | 0.00 | 0.00 | 44 | 1011.6 |